TAIP52 YMEN-YMEN

Flight info

Callsign TAIP52
Flight time 0h 17m
Altitude 3000
Route DCT
Aircraft EC13/L-V/N

Departure

Time 2026-04-21 10:45
Airport Melbourne Essendon Airport (YMEN)

Arrival

Time 2026-04-21 11:03
Airport Melbourne Essendon Airport (YMEN)
Time Latitude Longitude Altitude Speed Heading
2026-04-21 10:23 -37.72144 144.89710 281 ft 0 kts 219°
2026-04-21 10:41 -37.72147 144.89706 291 ft 1 kts 242°
2026-04-21 10:41 -37.72143 144.89706 305 ft 2 kts 352°
2026-04-21 10:42 -37.72146 144.89751 308 ft 8 kts 136°
2026-04-21 10:42 -37.72191 144.89806 290 ft 8 kts 109°
2026-04-21 10:42 -37.72189 144.89854 292 ft 5 kts 71°
2026-04-21 10:42 -37.72181 144.89894 289 ft 7 kts 72°
2026-04-21 10:43 -37.72170 144.89947 285 ft 6 kts 86°
2026-04-21 10:43 -37.72176 144.89976 294 ft 8 kts 72°
2026-04-21 10:43 -37.72162 144.90048 293 ft 10 kts 109°
2026-04-21 10:43 -37.72235 144.90084 286 ft 9 kts 186°
2026-04-21 10:44 -37.72250 144.90085 284 ft 1 kts 184°
2026-04-21 10:44 -37.72249 144.90084 284 ft 1 kts 168°
2026-04-21 10:44 -37.72263 144.90085 286 ft 10 kts 195°
2026-04-21 10:44 -37.72382 144.90091 287 ft 19 kts 189°
2026-04-21 10:45 -37.72596 144.90094 377 ft 49 kts 182°
2026-04-21 10:45 -37.73025 144.90087 570 ft 70 kts 177°
2026-04-21 10:45 -37.73481 144.90069 850 ft 68 kts 180°
2026-04-21 10:45 -37.73970 144.90128 1068 ft 74 kts 164°
2026-04-21 10:46 -37.74490 144.90290 1272 ft 80 kts 160°
2026-04-21 10:46 -37.74983 144.90475 1587 ft 68 kts 154°
2026-04-21 10:46 -37.75407 144.90686 1874 ft 63 kts 155°
2026-04-21 10:46 -37.75846 144.90913 2025 ft 78 kts 154°
2026-04-21 10:47 -37.76418 144.91221 2061 ft 100 kts 155°
2026-04-21 10:47 -37.77104 144.91612 2038 ft 115 kts 155°
2026-04-21 10:47 -37.77866 144.92048 2007 ft 124 kts 155°
2026-04-21 10:47 -37.78671 144.92484 1981 ft 127 kts 160°
2026-04-21 10:48 -37.79519 144.92819 1948 ft 128 kts 163°
2026-04-21 10:48 -37.80375 144.93120 1936 ft 127 kts 165°
2026-04-21 10:48 -37.81226 144.93408 1936 ft 126 kts 165°
2026-04-21 10:48 -37.82068 144.93694 1938 ft 125 kts 165°
2026-04-21 10:49 -37.82905 144.93971 1936 ft 124 kts 165°
2026-04-21 10:49 -37.83522 144.94626 1964 ft 120 kts 109°
2026-04-21 10:49 -37.83788 144.95624 1968 ft 120 kts 103°
2026-04-21 10:49 -37.84021 144.96640 1962 ft 121 kts 102°
2026-04-21 10:50 -37.84168 144.97318 1969 ft 120 kts 98°
2026-04-21 10:50 -37.84093 144.98653 2014 ft 113 kts 61°
2026-04-21 10:50 -37.83701 144.99496 2031 ft 110 kts 37°
2026-04-21 10:50 -37.82976 144.99597 2029 ft 110 kts 346°
2026-04-21 10:51 -37.82239 144.99315 2009 ft 111 kts 342°
2026-04-21 10:51 -37.81508 144.99007 2003 ft 111 kts 341°
2026-04-21 10:51 -37.81053 144.98724 1994 ft 108 kts 316°
2026-04-21 10:51 -37.81193 144.97581 1899 ft 119 kts 216°
2026-04-21 10:52 -37.81736 144.97494 1903 ft 120 kts 163°
2026-04-21 10:52 -37.82289 144.98219 1959 ft 116 kts 117°
2026-04-21 10:52 -37.82675 144.99117 1979 ft 117 kts 114°
2026-04-21 10:52 -37.83048 145.00019 1980 ft 118 kts 113°
2026-04-21 10:53 -37.83093 145.00967 2035 ft 113 kts 52°
2026-04-21 10:53 -37.82395 145.01243 2027 ft 116 kts 339°
2026-04-21 10:53 -37.81970 145.00407 1964 ft 118 kts 288°
2026-04-21 10:53 -37.81830 144.99404 1966 ft 114 kts 284°
2026-04-21 10:54 -37.81723 144.98415 1975 ft 113 kts 283°
2026-04-21 10:54 -37.81677 144.97433 1968 ft 112 kts 270°
2026-04-21 10:54 -37.81729 144.96446 1987 ft 113 kts 272°
2026-04-21 10:54 -37.81771 144.95447 1989 ft 115 kts 273°
2026-04-21 10:55 -37.81809 144.94436 1988 ft 115 kts 273°
2026-04-21 10:55 -37.81843 144.93425 1987 ft 115 kts 273°
2026-04-21 10:55 -37.81988 144.92469 1948 ft 111 kts 237°
2026-04-21 10:55 -37.82690 144.92116 1950 ft 113 kts 192°
2026-04-21 10:56 -37.83256 144.91544 2034 ft 110 kts 259°
2026-04-21 10:56 -37.83386 144.90565 2028 ft 116 kts 268°
2026-04-21 10:56 -37.83465 144.89535 2003 ft 119 kts 270°
2026-04-21 10:56 -37.83540 144.88489 1988 ft 119 kts 270°
2026-04-21 10:57 -37.83573 144.87454 2006 ft 115 kts 289°
2026-04-21 10:57 -37.82979 144.86867 2011 ft 114 kts 345°
2026-04-21 10:57 -37.82208 144.86668 2003 ft 113 kts 349°
2026-04-21 10:57 -37.81428 144.86510 1998 ft 114 kts 351°
2026-04-21 10:58 -37.80644 144.86363 1995 ft 114 kts 351°
2026-04-21 10:58 -37.79860 144.86221 1994 ft 113 kts 351°
2026-04-21 10:58 -37.79082 144.86073 1996 ft 113 kts 351°
2026-04-21 10:58 -37.78307 144.85927 1999 ft 113 kts 351°
2026-04-21 10:59 -37.77530 144.85785 1999 ft 112 kts 351°
2026-04-21 10:59 -37.76758 144.85641 1998 ft 112 kts 351°
2026-04-21 10:59 -37.75981 144.85497 1916 ft 114 kts 351°
2026-04-21 10:59 -37.75186 144.85337 1772 ft 117 kts 350°
2026-04-21 11:00 -37.74373 144.85175 1606 ft 119 kts 351°
2026-04-21 11:00 -37.73593 144.85015 1535 ft 109 kts 351°
2026-04-21 11:00 -37.72848 144.84860 1392 ft 107 kts 352°
2026-04-21 11:00 -37.72118 144.84718 1245 ft 105 kts 352°
2026-04-21 11:01 -37.71406 144.84575 1130 ft 101 kts 348°
2026-04-21 11:01 -37.70762 144.84649 1106 ft 94 kts 30°
2026-04-21 11:01 -37.70346 144.85281 1087 ft 92 kts 49°
2026-04-21 11:02 -37.69407 144.86329 1158 ft 96 kts 20°
2026-04-21 11:02 -37.68735 144.86455 1143 ft 98 kts
2026-04-21 11:02 -37.68067 144.86414 1176 ft 94 kts 354°
2026-04-21 11:02 -37.67449 144.86265 1218 ft 84 kts 343°
2026-04-21 11:03 -37.66940 144.86005 1168 ft 74 kts 334°
2026-04-21 11:03 -37.66545 144.85687 1090 ft 59 kts 323°
2026-04-21 11:03 -37.66315 144.85352 943 ft 44 kts 309°
2026-04-21 11:03 -37.66258 144.85031 782 ft 31 kts 294°
2026-04-21 11:04 -37.66269 144.84803 665 ft 22 kts 279°
2026-04-21 11:04 -37.66266 144.84689 501 ft 10 kts 308°
2026-04-21 11:04 -37.66240 144.84592 428 ft 10 kts 292°
2026-04-21 11:04 -37.66229 144.84559 355 ft 2 kts 299°
2026-04-21 11:05 -37.66221 144.84563 351 ft 1 kts 278°
2026-04-21 11:05 -37.66212 144.84566 348 ft 1 kts 285°
2026-04-21 11:05 -37.66214 144.84576 346 ft 2 kts 266°
2026-04-21 11:05 -37.66213 144.84582 345 ft 1 kts 276°
2026-04-21 11:06 -37.66214 144.84575 345 ft 2 kts 279°
2026-04-21 11:06 -37.66212 144.84560 353 ft 2 kts 278°
2026-04-21 11:06 -37.66214 144.84505 363 ft 12 kts 282°
2026-04-21 11:06 -37.66270 144.84382 413 ft 26 kts 238°
2026-04-21 11:07 -37.66505 144.84156 457 ft 56 kts 181°
2026-04-21 11:07 -37.66853 144.84203 436 ft 42 kts 172°
2026-04-21 11:07 -37.67107 144.84252 410 ft 36 kts 177°
2026-04-21 11:07 -37.67335 144.84295 382 ft 27 kts 174°
2026-04-21 11:08 -37.67481 144.84329 363 ft 18 kts 178°
2026-04-21 11:08 -37.67596 144.84346 368 ft 21 kts 182°
2026-04-21 11:08 -37.67775 144.84376 428 ft 32 kts 178°
2026-04-21 11:08 -37.68037 144.84418 429 ft 43 kts 167°
2026-04-21 11:09 -37.68307 144.84460 393 ft 33 kts 186°
2026-04-21 11:09 -37.68432 144.84407 337 ft 10 kts 228°
2026-04-21 11:09 -37.68483 144.84365 333 ft 8 kts 229°
2026-04-21 11:09 -37.68535 144.84306 333 ft 7 kts 261°
2026-04-21 11:10 -37.68548 144.84285 328 ft 0 kts 274°
2026-04-21 11:10 -37.68547 144.84285 328 ft 0 kts 279°
2026-04-21 11:14 -37.68547 144.84281 330 ft 2 kts 278°
2026-04-21 11:14 -37.68548 144.84276 332 ft 1 kts 281°
2026-04-21 11:14 -37.68548 144.84277 331 ft 0 kts 286°
2026-04-21 11:15 -37.68548 144.84276 331 ft 1 kts 285°
2026-04-21 11:15 -37.68548 144.84275 330 ft 1 kts 285°
2026-04-21 11:15 -37.68555 144.84237 335 ft 9 kts 282°
2026-04-21 11:15 -37.68553 144.84158 352 ft 11 kts 277°
2026-04-21 11:16 -37.68492 144.84083 362 ft 13 kts 351°
2026-04-21 11:16 -37.68306 144.84057 405 ft 53 kts 346°
2026-04-21 11:16 -37.67953 144.84029 663 ft 50 kts
2026-04-21 11:16 -37.67829 144.84458 810 ft 66 kts 97°
2026-04-21 11:17 -37.68231 144.84826 957 ft 74 kts 146°
2026-04-21 11:17 -37.68670 144.85118 1210 ft 69 kts 147°
2026-04-21 11:17 -37.69085 144.85429 1415 ft 72 kts 146°
2026-04-21 11:17 -37.69535 144.85779 1582 ft 79 kts 146°
2026-04-21 11:18 -37.70010 144.86151 1754 ft 82 kts 146°
2026-04-21 11:18 -37.70503 144.86527 1924 ft 84 kts 146°
2026-04-21 11:18 -37.71018 144.86929 1999 ft 93 kts 145°
2026-04-21 11:18 -37.71611 144.87396 1974 ft 106 kts 145°
2026-04-21 11:19 -37.72252 144.87914 1946 ft 112 kts 145°
2026-04-21 11:19 -37.72918 144.88461 1931 ft 115 kts 144°
2026-04-21 11:19 -37.73595 144.89010 1919 ft 116 kts 145°
2026-04-21 11:19 -37.74268 144.89558 1913 ft 116 kts 144°
2026-04-21 11:20 -37.74952 144.90112 1909 ft 117 kts 145°
2026-04-21 11:20 -37.75681 144.90543 1902 ft 116 kts 157°
2026-04-21 11:20 -37.76435 144.90905 1912 ft 116 kts 159°
2026-04-21 11:20 -37.77195 144.91269 1910 ft 117 kts 159°
2026-04-21 11:21 -37.77955 144.91640 1908 ft 117 kts 159°
2026-04-21 11:21 -37.78717 144.92003 1907 ft 117 kts 159°
2026-04-21 11:21 -37.79479 144.92375 1909 ft 118 kts 159°
2026-04-21 11:21 -37.80246 144.92746 1911 ft 118 kts 159°
2026-04-21 11:22 -37.81012 144.93119 1899 ft 117 kts 156°
2026-04-21 11:22 -37.81760 144.93537 1794 ft 118 kts 150°
2026-04-21 11:22 -37.82468 144.94038 1586 ft 114 kts 145°
2026-04-21 11:22 -37.83098 144.94488 1378 ft 88 kts 148°
2026-04-21 11:23 -37.83560 144.94762 1163 ft 66 kts 155°
2026-04-21 11:23 -37.83967 144.95012 946 ft 63 kts 154°
2026-04-21 11:23 -37.84228 144.95378 857 ft 56 kts 99°
2026-04-21 11:23 -37.84145 144.95826 848 ft 52 kts 51°
2026-04-21 11:24 -37.83920 144.96205 836 ft 55 kts 49°
2026-04-21 11:24 -37.83688 144.96565 858 ft 54 kts 53°
2026-04-21 11:24 -37.83458 144.96956 880 ft 55 kts 49°
2026-04-21 11:24 -37.83179 144.97322 868 ft 63 kts 41°
2026-04-21 11:25 -37.82851 144.97708 878 ft 59 kts 33°
2026-04-21 11:25 -37.82576 144.97949 884 ft 37 kts 32°
2026-04-21 11:25 -37.82375 144.98055 771 ft 29 kts 17°
2026-04-21 11:25 -37.82223 144.98136 649 ft 19 kts 29°
2026-04-21 11:26 -37.82146 144.98214 504 ft 13 kts 41°
2026-04-21 11:26 -37.82065 144.98278 361 ft 13 kts 35°
2026-04-21 11:26 -37.82012 144.98333 209 ft 9 kts 39°
2026-04-21 11:26 -37.82000 144.98345 67 ft 0 kts 65°
2026-04-21 11:27 -37.82001 144.98330 29 ft 1 kts 76°
2026-04-21 11:29 -37.81990 144.98350 34 ft 4 kts 105°
2026-04-21 11:30 -37.81996 144.98361 57 ft 3 kts 116°
2026-04-21 11:30 -37.81997 144.98357 75 ft 1 kts 122°
2026-04-21 11:30 -37.82000 144.98380 104 ft 4 kts 109°
2026-04-21 11:30 -37.81936 144.98336 235 ft 30 kts 316°
2026-04-21 11:31 -37.81800 144.98108 485 ft 41 kts 342°
2026-04-21 11:31 -37.81694 144.98453 684 ft 67 kts 110°
2026-04-21 11:31 -37.82133 144.98525 929 ft 79 kts 239°
2026-04-21 11:31 -37.81926 144.98052 1203 ft 79 kts 345°
2026-04-21 11:32 -37.81395 144.97828 1446 ft 77 kts 339°
2026-04-21 11:32 -37.80985 144.97568 1813 ft 59 kts 332°
2026-04-21 11:32 -37.80612 144.97267 1969 ft 76 kts 324°
2026-04-21 11:32 -37.80113 144.96712 1906 ft 105 kts 316°
2026-04-21 11:33 -37.79596 144.96010 1922 ft 112 kts 312°
2026-04-21 11:33 -37.79016 144.95358 1961 ft 114 kts 323°
2026-04-21 11:33 -37.78341 144.94804 2003 ft 109 kts 323°
2026-04-21 11:33 -37.77755 144.94198 2017 ft 110 kts 317°
2026-04-21 11:34 -37.77232 144.93539 2086 ft 105 kts 311°
2026-04-21 11:34 -37.76792 144.92813 2086 ft 103 kts 305°
2026-04-21 11:34 -37.76408 144.92055 1952 ft 102 kts 303°
2026-04-21 11:34 -37.76070 144.91266 1676 ft 104 kts 303°
2026-04-21 11:35 -37.75665 144.90592 1339 ft 88 kts 320°
2026-04-21 11:35 -37.75181 144.90228 1006 ft 76 kts 348°
2026-04-21 11:35 -37.74724 144.90183 775 ft 54 kts 351°
2026-04-21 11:35 -37.74360 144.90161 613 ft 52 kts 355°
2026-04-21 11:36 -37.74007 144.90148 502 ft 52 kts 358°
2026-04-21 11:36 -37.73632 144.90140 402 ft 53 kts 357°
2026-04-21 11:36 -37.73299 144.90136 320 ft 30 kts 353°
2026-04-21 11:36 -37.73227 144.90129 262 ft 2 kts
2026-04-21 11:37 -37.73219 144.90128 275 ft 11 kts
2026-04-21 11:37 -37.72978 144.90118 293 ft 30 kts 360°
2026-04-21 11:37 -37.72792 144.90061 295 ft 25 kts 288°
2026-04-21 11:37 -37.72760 144.89957 268 ft 5 kts 306°
2026-04-21 11:38 -37.72749 144.89925 268 ft 3 kts 323°
2026-04-21 11:38 -37.72739 144.89911 270 ft 5 kts 327°
2026-04-21 11:38 -37.72714 144.89881 270 ft 3 kts 328°
2026-04-21 11:38 -37.72705 144.89875 267 ft 1 kts 325°
2026-04-21 11:39 -37.72700 144.89871 268 ft 1 kts 327°
2026-04-21 11:39 -37.72696 144.89869 267 ft 0 kts 337°
2026-04-21 11:39 -37.72695 144.89869 266 ft 0 kts 337°